SCP
0 0 0 0 0 0 0 0 0 0 0 0 0 0 0 0 0 0 0 0 0 0 0 0 0 0 0 0 0 0 0 0 0 0 0 0 0 0 0 0 0 0 0
0 0 0 0 0 0 0 0 0 0 0 0 0 0 0 0 0 0 0 0 0 0 0 0 0 0 0 0 0 0 0 0 0 0 0 0 0 0 0 0 0 0 0
0 0 0 0 0 0 0 0 0 0 0 0 0 0 0 0 0 0 0 0 0 0 0 0 0 0 0 0 0 0 0 0 0 0 0 0 0 0 0 0 0 0 0
0 0 0 0 0 0 0 0 0 0 0 0 0 0 0 0 0 0 0 0 0 0 0 0 0 0 0 0 0 0 0 0 0 0 0 0 0 0 0 0 0 0 0
0 0 0 0 0 0 0 0 0 0 0 0 0 0 0 0 0 0 0 0 0 0 0 0 0 0 0 0 0 0 0 0 0 0 0 0 0 0 0 0 0 0 0
0 0 0 0 0 0 0 0 0 0 0 0 0 0 0 0 0 0 0 0 0 -0 -0 0 0 0 0 0 0 0 0 0 0 0 0 0 0 0 0 0 0 0 0
0 0 0 0 0 0 0 0 0 0 0 0 0 0 0 0 0 0 0 0 0 0 0 -0 -0 0 0 0 0 -0 -0 -0 -0 -0 -0 -0 -0 0 0 0 0 0 0
0 0 0 0 0 0 0 0 0 0 0 0 0 0 0 0 0 0 0 0 0 0 0 0 -0 -0 -0 -0 -0 -0 -0 -0 -0 -0 -0 -0 -0 -0 -0 -0 -0 0 0
-0 -0 -0 0 0 0 0 0 0 0 0 -0 0 0 0 0 0 -0 -0 -0 0 0 0 0 0 0 0 -0 -0 -0 -0 -0 -0 -0 -0 -0 -0 -0 -0 -0 -0 -0 -0
-0 -0 -0 -0 -0 -0 0 0 0 0 0 0 0 0 0 0 0 0 0 0 0 0 0 0 0 0 0 -0 -0 0 0 0 -0 0 0 0 0 0 0 0 0 0 -0
0 0 0 -0 -0 -0 0 0 0 0 0 0 0 0 0 0 0 0 0 0 0 0 0 0 0 0 0 0 0 0 0 0 0 0 0 0 0 0 0 0 0 0 0
0 0 0 0 0 0 0 0 0 0 0 0 0 0 0 0 0 0 0 0 0 0 0 0 0 0 0 0 0 0 0 0 0 0 0 0 0 0 0 0 0 0 0
0 0 0 0 0 0 0 0 0 0 -0 -0 -0 -0 0 0 0 0 0 0 0 0 0 0 0 0 0 0 0 0 0 0 0 0 0 0 0 0 0 0 0 0 0
0 0 0 0 0 0 0 0 0 0 -0 -0 -0 -0 0 0 0 -0 -0 -0 0 0 0 0 0 0 0 0 0 0 0 0 0 0 0 0 0 0 0 0 0 0 0
0 0 0 0 0 0 0 0 0 0 -0 -0 -0 -0 0 0 0 0 0 0 0 0 0 0 0 0 0 -0 0 0 0 0 0 0 0 0 0 0 0 0 0 0 0
0 0 0 0 0 0 0 0 0 0 -0 -0 -0 -0 0 0 0 0 0 0 0 0 0 0 0 0 0 0 0 0 0 0 0 0 0 0 0 0 0 0 0 0 0
0 0 0 0 0 0 0 0 0 0 -0 -0 -0 0 0 0 0 0 0 0 0 0 0 0 0 0 0 0 0 0 0 0 0 0 0 0 0 0 0 0 0 0 0
0 0 0 0 0 0 0 0 0 0 0 0 0 0 0 0 0 0 0 0 0 0 0 0 0 0 0 0 0 0 0 0 0 0 0 0 0 0 0 0 0 0 0
0 0 0 0 0 0 0 0 0 0 0 0 0 0 0 0 0 0 0 0 0 0 0 0 0 0 0 0 0 0 0 0 0 0 0 0 0 0 0 0 0 0 0
0 0 0 0 0 0 0 0 0 0 0 0 0 0 0 0 0 0 0 0 0 0 0 0 0 0 0 0 0 0 0 0 0 0 0 0 0 0 0 0 0 0 0
0 0 0 0 0 0 0 0 0 0 0 0 0 0 0 0 0 0 0 0 0 0 0 0 0 0 0 0 0 0 0 0 0 0 0 0 0 0 0 0 0 0 0
0 0 0 0 0 0 0 0 0 0 0 0 0 0 0 0 0 0 0 0 0 0 0 0 0 0 0 0 0 0 0 0 0 0 0 0 0 0 0 0 0 0 0
0 0 0 0 0 0 0 0 0 0 0 0 0 0 0 0 0 0 0 0 0 0 0 0 0 0 0 0 0 0 0 0 0 0 0 0 0 0 0 0 0 0 0
0 0 0 0 0 0 0 0 0 0 0 0 0 0 0 0 0 0 0 0 0 0 0 0 0 0 0 0 0 0 0 0 0 0 0 0 0 0 0 0 0 0 0
0 0 0 0 0 0 0 0 0 0 0 0 0 0 0 0 0 0 0 0 0 0 0 0 0 0 0 0 0 0 0 0 0 0 0 0 0 0 0 0 0 0 0
0 0 0 0 0 0 0 0 0 0 0 0 0 0 0 0 0 0 0 0 0 0 0 0 0 0 0 0 0 0 0 0 0 0 0 0 0 0 0 0 0 0 0
Wind_Speed
6 6 6 5 5 5 5 5 5 5 5 5 5 6 7 7 6 6 7 7 8 7 7 7 7 6 5 4 4 4 4 4 6 2 1 1 1 1 0 1 2 2 2
5 6 6 6 6 6 6 5 5 6 6 6 6 6 7 7 6 7 7 7 7 8 7 8 7 7 7 5 5 5 4 4 6 4 1 1 0 1 0 1 1 1 2
5 6 6 6 6 6 5 5 6 6 6 7 7 7 7 7 7 7 7 7 7 7 6 7 6 8 7 5 6 5 4 5 4 4 2 1 1 1 2 2 1 2 1
5 5 6 5 5 5 5 6 6 6 7 7 7 7 7 7 7 6 6 7 7 6 6 6 6 6 6 6 6 5 5 5 5 4 3 2 2 2 3 2 2 2 2
5 5 5 4 5 5 6 6 6 7 7 6 7 7 7 6 5 6 6 6 6 6 6 6 6 7 8 6 5 4 5 4 4 4 3 2 2 2 2 1 1 2 2
4 4 4 4 5 5 5 5 6 6 6 7 7 7 7 5 7 9 6 5 5 5 5 5 6 8 9 9 8 6 5 5 4 3 2 2 0 0 0 1 1 2 2
4 4 4 4 5 4 5 6 6 5 6 6 6 6 6 6 9 9 8 5 5 5 5 5 5 6 6 5 7 8 6 5 5 4 3 2 2 2 1 1 0 1 2
3 3 3 4 4 4 5 5 5 4 5 5 5 5 5 7 9 9 9 6 5 5 5 5 5 5 5 5 5 6 5 3 2 2 3 3 3 3 3 2 1 1 2
3 3 3 4 4 4 5 4 4 4 4 4 4 5 5 5 9 9 8 5 5 6 5 5 5 5 6 7 6 5 5 4 3 2 2 3 4 5 4 1 1 2 2
3 3 3 4 4 4 4 3 3 3 4 4 4 4 4 5 8 9 7 4 5 4 4 4 5 5 6 7 5 4 4 3 4 4 4 3 1 1 3 3 3 2 1
3 4 4 3 3 3 3 3 3 4 5 4 4 4 4 5 6 8 8 4 3 3 2 2 2 4 5 5 4 2 1 2 2 2 2 3 2 2 1 2 3 3 3
4 4 3 3 3 4 4 3 4 4 5 4 4 4 3 4 5 6 8 6 4 3 1 1 2 4 5 4 2 2 4 3 2 3 3 3 2 2 2 3 2 4 4
4 4 4 5 4 4 4 4 4 4 3 3 3 3 2 3 4 8 8 8 7 3 1 2 3 4 4 3 4 5 4 3 3 3 2 2 2 3 2 3 3 2 2
4 3 4 5 5 5 4 3 3 3 3 3 3 2 2 2 3 3 4 4 6 4 4 5 5 5 4 3 4 3 2 1 1 1 1 2 2 2 2 2 2 2 3
4 3 4 4 4 4 4 3 3 1 2 4 3 3 3 1 1 1 2 2 2 2 3 3 3 3 3 3 3 3 2 3 2 1 2 2 3 3 2 2 1 1 1
3 3 2 3 3 3 3 3 6 4 5 5 5 4 2 2 1 2 3 3 3 3 3 2 2 2 1 1 2 2 2 2 2 2 2 2 2 2 3 2 1 1 1
3 2 2 2 3 3 2 3 2 3 5 4 3 3 3 2 0 2 4 5 4 2 2 1 1 1 0 0 1 1 1 1 1 2 2 2 2 2 2 2 2 2 2
2 3 3 3 3 3 3 3 3 2 0 1 2 1 2 2 2 3 4 5 4 3 1 0 0 0 0 0 0 1 1 2 2 2 2 2 2 2 2 3 3 2 3
2 2 2 2 2 3 3 3 3 3 2 1 1 2 3 3 3 3 1 1 1 1 1 0 1 0 0 0 0 1 1 1 2 2 2 3 3 2 3 3 3 5 3
1 2 3 2 2 2 2 3 3 3 3 2 2 3 1 0 1 2 0 1 1 1 1 1 1 0 1 1 1 1 1 2 2 2 2 2 2 2 3 4 4 3 3
1 1 2 1 2 2 3 3 3 3 3 3 4 4 5 3 2 2 2 2 2 2 2 1 1 1 1 1 1 2 2 1 1 1 1 2 3 3 3 3 4 3 3
2 2 1 2 2 2 3 3 3 4 4 4 3 3 6 3 2 3 3 3 3 3 3 3 2 1 2 2 2 2 2 1 0 1 2 2 3 3 3 4 4 4 4
2 2 2 2 2 3 3 2 3 3 4 4 4 3 3 3 3 4 4 3 3 2 2 3 3 2 2 2 2 3 2 2 2 1 1 2 3 3 3 4 5 5 4
2 3 3 3 2 3 3 3 3 3 4 4 4 4 4 4 4 5 4 3 3 3 3 3 3 5 5 3 2 2 2 2 2 2 2 2 3 3 3 4 4 5 4
2 2 3 3 3 4 4 3 3 4 4 4 4 4 4 4 4 4 4 4 4 4 5 4 3 4 6 6 5 3 3 3 2 2 2 2 3 4 4 4 4 4 4
2 2 3 3 3 4 4 4 4 4 4 4 4 4 4 5 5 4 4 4 4 4 4 4 5 6 6 5 6 5 4 4 3 3 2 2 3 3 4 3 5 4 4
Wind_Direction
53 58 62 59 59 63 66 68 75 74 71 70 70 71 69 66 66 71 70 70 71 64 60 68 64 64 67 62 75 85 93 109 120 115 67 112 159 195 221 258 238 229 222
63 67 64 62 61 61 61 58 64 67 66 68 67 69 72 69 67 71 73 69 72 69 64 65 61 68 62 60 70 77 85 94 119 121 85 51 223 212 176 314 302 221 219
65 73 67 61 59 58 58 59 62 65 66 65 67 68 68 67 68 69 73 72 71 70 68 70 66 72 68 65 69 72 77 83 91 111 99 39 22 24 46 13 12 353 257
66 69 67 62 62 60 61 62 64 67 69 69 70 70 69 67 65 66 70 71 70 68 68 69 68 75 81 78 76 72 79 79 82 91 83 55 40 19 56 38 5 347 330
74 74 70 64 61 60 62 63 64 68 73 72 73 68 64 62 60 66 68 76 76 70 63 63 68 75 76 78 88 86 88 87 85 86 78 58 33 32 29 354 16 336 329
82 80 75 68 66 65 69 68 66 66 68 71 72 71 61 58 60 66 76 77 78 77 70 62 61 54 56 61 74 91 107 115 115 104 97 101 94 209 342 27 44 33 327
81 75 72 74 72 70 79 77 74 74 76 75 73 72 62 46 52 59 69 82 79 77 76 70 65 51 48 52 53 57 63 92 130 139 143 179 193 208 170 35 56 191 241
87 85 84 82 76 72 78 82 82 82 82 81 79 74 63 43 44 55 72 75 73 73 79 86 80 51 43 62 64 55 45 40 75 142 177 206 211 203 184 187 210 270 301
99 99 98 95 86 79 77 78 82 88 85 81 83 76 66 39 42 59 74 76 72 62 64 70 77 63 51 70 72 61 39 10 18 30 229 231 225 208 182 121 70 67 4
111 108 99 92 91 89 87 80 74 88 95 92 80 70 68 50 47 62 78 86 81 66 52 45 55 66 60 69 77 71 40 345 345 353 2 357 336 280 194 174 161 144 184
101 95 92 90 98 99 86 76 87 90 90 88 80 61 56 53 49 62 74 83 94 82 62 25 7 35 48 55 71 79 326 315 335 358 6 7 4 352 305 220 192 172 181
90 85 87 86 88 89 82 74 82 95 94 88 79 58 36 32 44 58 68 75 91 93 71 344 322 354 12 21 32 6 15 36 41 38 34 13 356 328 302 288 244 219 214
91 87 85 76 68 78 89 86 75 80 92 95 92 81 41 22 26 45 56 62 68 70 359 323 337 354 4 3 358 7 30 49 49 44 19 321 289 285 303 324 334 323 297
98 89 86 84 74 65 67 78 87 93 105 113 120 114 76 37 24 22 29 36 36 30 3 345 356 13 29 4 0 16 32 58 90 55 309 306 322 344 352 351 348 349 353
100 93 90 91 96 81 67 59 80 73 152 146 149 148 137 111 339 49 67 35 14 354 355 13 22 21 19 14 11 8 20 34 38 16 7 0 356 354 339 341 355 11 1
110 110 118 117 111 107 98 62 40 59 72 100 129 135 127 152 147 53 37 17 1 14 56 39 17 22 33 31 33 17 11 9 1 9 15 12 360 351 342 343 352 352 312
140 145 145 144 143 143 137 126 93 21 35 56 94 122 138 160 111 7 2 357 8 61 68 38 20 17 24 31 50 41 345 329 344 17 19 5 357 355 356 346 343 338 321
147 162 164 174 172 170 172 168 158 153 153 322 322 257 231 250 300 339 4 21 22 33 65 129 234 262 104 56 9 359 348 355 5 12 11 4 2 357 351 341 333 321 309
153 171 179 184 180 174 174 175 178 180 191 224 285 299 278 291 315 322 23 68 28 347 341 283 238 220 213 79 40 40 36 20 16 19 10 3 357 356 344 333 326 326 327
178 186 168 165 166 168 173 179 185 189 197 208 227 243 263 34 330 319 273 197 202 227 234 222 231 173 143 112 104 87 63 48 38 34 13 2 354 357 342 330 326 322 310
207 228 195 156 179 187 189 194 193 188 197 210 227 230 198 189 226 239 234 219 208 210 200 170 148 118 111 111 108 95 94 76 54 26 2 349 349 345 335 328 321 316 313
200 215 214 210 207 199 197 198 192 195 203 209 227 240 212 199 213 221 225 226 218 204 186 166 160 164 160 151 142 129 120 108 1 344 338 334 334 333 333 334 330 325 324
199 213 223 224 213 211 204 202 196 199 206 211 212 215 205 206 213 216 216 214 203 195 184 167 158 163 161 151 150 152 162 195 227 249 292 314 321 324 325 320 319 320 317
209 215 212 214 213 209 215 222 215 208 206 207 208 207 206 206 211 214 213 209 200 196 189 181 179 180 177 172 169 172 187 205 218 238 263 278 297 305 310 312 311 311 309
233 222 214 216 220 219 219 221 219 214 209 204 204 205 208 209 214 217 213 206 198 198 196 188 185 186 187 187 189 198 207 213 221 233 253 264 283 293 298 301 306 310 312
263 242 230 223 221 218 214 215 217 211 208 209 206 205 206 208 213 215 210 203 199 200 198 197 197 196 195 196 199 202 210 223 240 252 248 256 278 291 300 298 310 311 316